www.pogodaiklimat.ru

Погода и климат >> Архив погоды >> Канада >> Arviat Airport


ПОГОДА в Arviat Airport

  • Прогноз погоды в Arviat Airport
  • Монитор погоды в Arviat Airport
  • Климат города

АРХИВ ПОГОДЫ в Arviat Airport

Время (UTC), дата Ветер
(напр.,м/с)
 
Видим.   Явления Облачность Т
(С)
Тd
(С)
f
(%)
Тe
(С)
Тes
(С)
Комфортность P
(гПа)
Po
(гПа)
Тmin
(С)
Tmax
(С)
R
(мм)
R24
(мм)
S
(см)
15 11.09 ЮЗ 6 16 км ясно +5.6 +3.7 88 +1 +2 1002.9 1001.6
18 11.09 Ю 8 16 км 9/0
[]
+7.4 +4.8 84 +3 +3 1001.5 1000.2 +1.8 +7.8
21 11.09 З 6 16 км слаб. дождь 10/10 600 м
[]
+8.5 +6.0 84 +4 +4 1002.0 1000.7
00 12.09 С 8 16 км 10/10 300 м
[]
+3.4 +2.7 95 -3 -3 1005.1 1003.8 +1.8 +9.6
03 12.09 С 8 16 км 10/10 600 м
[]
+2.6 +0.2 84 -4 -4 1007.5 1006.2
06 12.09 З 3 16 км 3/3 1000 м
[]
-1.2 -1.6 97 -6 -6 1009.7 1008.4 -1.3 +9.6 221
09 12.09 З 4 16 км ясно -1.0 -2.4 90 -7 -7 1011.6 1010.3
12 12.09 З 5 16 км ясно -1.7 -2.4 95 -8 -8 1013.5 1012.1 -2.1 +9.6
15 12.09 З 5 16 км ясно +2.8 +0.3 84 -3 -1 1015.0 1013.7
18 12.09 З 7 16 км 9/9 1000 м
[]
+4.2 -3.0 59 -1 -1 1016.6 1015.2 -2.1 +5.1
21 12.09 З 10 16 км 9/9 1000 м
[]
+5.9 -3.6 50 +1 +1 1018.1 1016.7
00 13.09 З 4 16 км 9/0 2000 м
[]
+4.3 -2.5 61 0 0 1019.2 1017.8 -2.1 +6.7
03 13.09 ЮЗ 4 16 км 10/0 2000 м
[]
+0.7 -1.2 87 -5 -5 1020.3 1018.9
06 13.09 З 4 16 км 9/0
[]
-0.2 -1.3 92 -6 -6 1020.8 1019.4 -2.1 +6.7 211
09 13.09 ЮЗ 3 16 км 9/0
[]
+0.2 -0.4 96 -5 -5 1020.8 1019.4
12 13.09 З 2 16 км 10/10 1500 м
[]
+1.1 -0.1 92 -3 -3 1020.6 1019.2 -0.9 +6.7
15 13.09 С 3 16 км 10/10 1000 м
[]
+2.4 -1.0 78 -1 -1 1020.1 1018.7
18 13.09 СВ 4 6000 м осадки 10/10 600 м
[]
+1.8 -0.2 87 -3 -3 1018.8 1017.4 -0.9 +3.0
21 13.09 СВ 6 4800 м слаб. снег 10/10 200 м
[]
+1.1 +0.7 97 -5 -5 1017.8 1016.4
00 14.09 С 7 4800 м слаб. снег 10/10 200 м
[]
+0.8 +0.7 99 -6 -6 1017.1 1015.7 -0.3 +3.0
03 14.09 С 8 12 км слаб. снег 10/10 200 м
[]
+1.1 +0.7 97 -6 -6 1016.2 1014.8
06 14.09 С 8 16 км слаб. дождь 10/10 600 м
[]
+1.4 +0.8 96 -6 -6 1015.7 1014.3 -0.3 +3.0 51
09 14.09 С 5 16 км 10/10 300 м
[]
+0.8 +0.5 98 -5 -5 1015.8 1014.4
12 14.09 СЗ 3 16 км 9/0
[]
+0.2 +0.2 100 -5 -5 1016.1 1014.7 +0.1 +3.0
15 14.09 СЗ 6 16 км ясно +3.0 -0.6 77 -2 -1 1016.2 1014.8
18 14.09 СЗ 6 16 км ясно +5.2 -3.3 54 +1 +3 1016.5 1015.2 -0.3 +5.3
21 14.09 СЗ 4 16 км 9/9 1500 м
[]
+5.9 -4.0 49 +3 +3 1016.4 1015.1
00 15.09 СЗ 8 16 км 9/9 1500 м
[]
+4.7 -2.5 60 -1 -1 1017.0 1015.6 -0.3 +6.4
03 15.09 З 3 16 км 5/0
[]
-0.3 -1.2 94 -5 -5 1018.0 1016.6
06 15.09 З 4 16 км 10/0 2000 м
[]
-0.1 -0.5 97 -6 -6 1018.0 1016.6 -0.5 +6.4 71
09 15.09 З 3 4800 м слаб. снег 10/10 600 м
[]
0.0 -0.1 99 -5 -5 1017.4 1016.0
12 15.09 З 6 16 км 5/5 1000 м
[]
-1.2 -2.7 90 -8 -8 1017.7 1016.3 -1.3 +6.4
15 15.09 З 7 16 км 5/0 2000 м
[]
+1.5 -1.2 82 -5 -5 1017.3 1015.9
18 15.09 З 8 16 км 9/9 1000 м
[]
+4.4 -2.1 63 -1 -1 1017.2 1015.8 -1.3 +4.8
21 15.09 З 9 16 км 10/10 600 м
[]
+3.8 -0.2 75 -3 -3 1018.4 1017.0
00 16.09 СЗ 10 16 км 9/9 1500 м
[]
+2.7 -5.0 57 -4 -4 1019.8 1018.4 -1.3 +6.7
03 16.09 З 3 16 км ясно -1.3 -3.8 83 -6 -6 1021.0 1019.6
06 16.09 З 4 16 км 10/10 1500 м
[]
0.0 -1.8 88 -5 -5 1022.1 1020.7 -2.0 +6.7 201
09 16.09 СЗ 7 16 км ясно -1.4 -2.7 91 -9 -9 1022.8 1021.4
12 16.09 СЗ 5 16 км ясно -2.3 -3.0 95 -9 -9 1024.8 1023.4 -2.3 +6.7
15 16.09 СЗ 8 16 км 3/3 600 м
[]
+1.4 -2.3 76 -6 -5 1026.2 1024.8
18 16.09 СЗ 7 16 км 9/9 1000 м
[]
+2.8 -5.0 56 -3 -3 1027.1 1025.7 -2.3 +3.2
21 16.09 СЗ 5 16 км 3/3 1000 м
[]
+3.1 -4.3 58 -2 -1 1026.8 1025.4
00 17.09 З 2 16 км 10/10 1500 м
[]
+2.9 -4.4 59 +1 +1 1027.2 1025.8 -2.3 +4.3
03 17.09 З 4 16 км 10/10 1500 м
[]
+1.1 -3.0 74 -4 -4 1026.5 1025.1
06 17.09 ЮЗ 3 16 км 5/5 1000 м
[]
-1.9 -2.7 94 -7 -7 1026.3 1024.9 -2.3 +4.3 161
09 17.09 ЮЗ 4 16 км 10/10 1500 м
[]
+0.1 -2.1 85 -5 -5 1025.4 1024.0
12 17.09 ЮЗ 4 16 км 10/10 1500 м
[]
+0.7 -2.0 82 -5 -5 1024.4 1023.0 -2.6 +4.3
15 17.09 З 6 16 км 10/10 1500 м
[]
+2.9 -0.6 78 -3 -3 1023.5 1022.1
18 17.09 ЮЗ 5 16 км 10/10 1500 м
[]
+4.6 -0.1 72 0 0 1021.8 1020.4 -2.6 +4.6
21 17.09 Ю 10 16 км 10/10 1000 м
[]
+5.2 +1.7 78 -1 -1 1019.3 1017.9
00 18.09 З 3 16 км 10/10 1500 м
[]
+4.7 -0.5 69 +1 +1 1018.4 1017.0 -2.6 +6.2
03 18.09 ЮЗ 7 16 км 10/10 1000 м
[]
+4.0 +1.0 81 -2 -2 1017.8 1016.4
06 18.09 ЮЗ 8 16 км 10/10 1500 м
[]
+3.4 +0.2 80 -3 -3 1016.0 1014.7 -2.6 +6.2 211
09 18.09 ЮЗ 7 16 км 10/10 1500 м
[]
+2.8 -0.2 81 -3 -3 1014.0 1012.7
12 18.09 Ю 8 16 км 10/0 2000 м
[]
+2.4 -0.0 84 -4 -4 1012.2 1010.9 +2.4 +6.2

 

Местоположение метеостанции Arviat Airport (Канада): широта 61.09 долгота -94.07 высота над уровнем моря 10 м.

В архиве по умолчанию представлена погода в Arviat Airport за последнюю неделю. Архивные данные за месяц целиком и за предыдущие месяцы, начиная с января 2011 года, Вы можете получить, выбрав интересующий диапазон дат из раскрывающегося списка и нажав кнопку "Ввод!".


*Определитесь, кто Вы:
робот инопланетянин человек

Внимание! Время в таблицах - всемирное. Для получения местного времени необходимо прибавить поправку, которая в Arviat Airport равна -5 ч.

Смотрите также архив погоды в соседних городах и на ближайших метеорологических станциях:

Погода в Arviat Climate (Канада) (1 км)
Погода в Arviat (Канада) (1 км)
Погода в Rankin Inlet (Канада) (218 км)
Погода в Churchill Climate (Канада) (264 км)
Погода в Tadoule Lake (Канада) (361 км)
Погода в Baker Lake Airport (Канада) (371 км)
Погода в Baker Lake Climate (Канада) (372 км)
Погода в Dubawnt Lake (Канада) (462 км)
Погода в Gillam (Канада) (528 км)
Погода в Back River MAPS (Канада) (568 км)

Пояснения к столбцам:

Ветер - указаны скорость ветра в м/с - средняя за 10 мин, порывы в срок и между сроками (в фигурных скобках) и направление, откуда дует ветер: С - северный, СВ - северо-восточный, В - восточный, ЮВ - юго-восточный, Ю - южный, ЮЗ - юго-западный, З - западный, СЗ - северо-западный.
Видимость - горизонтальная дальность видимости в метрах или километрах. При видимости от 1 до 10 км при отсутствии осадков обычно наблюдается дымка, при ухудшении видимости до 1 км и менее - туман. В сухую погоду видимость может ухудшаться дымом, пылью или мглою.
Явления - указаны атмосферные явления, наблюдавшиеся в срок или в последний час перед сроком; фигурными скобками обозначены явления, наблюдавшиеся между сроками (за 1-3 часа до срока); квадратными скобками обозначены град или гололедные отложения с указанием их диаметра в мм.
Облачность - указаны через наклонную черту общая и нижняя облачность в баллах и высота нижней границы облаков в метрах; квадратными скобками обозначены формы облаков: Ci - перистые, Cs - перисто-слоистые, Cc - перисто-кучевые, Ac - высококучевые, As - высокослоистые, Sc - слоисто-кучевые, Ns - слоисто-дождевые, Cu - кучевые, Cb - кучево-дождевые. Подробнее классификацию облаков см. в Атласе облаков (PDF).
T - Температура воздуха - температура, измеренная на высоте 2 м над землей.
Td - Температура точки росы - температура, при понижении до которой содержащийся в воздухе водяной пар достигнет насыщения.
f - Относительная влажность воздуха - влажноcть воздуха, измеренная на высоте 2 м над землей.
Te - Эффективная температура - температура, которую ощущает одетый по сезону человек в тени. Характеристика душности погоды. При расчете учитывается влияние влажности воздуха и скорости ветра на теплоощущения человека.
Tes - Эффективная температура на солнце - температура, которую ощущает человек, с поправкой на солнечный нагрев. Характеристика знойности погоды. Зависит от высоты солнца над горизонтом, облачности и скорости ветра. Ночью, в пасмурную погоду, а также при ветре 12 м/с и более поправка равна нулю.
P - Атмосферное давление - приведенное к уровню моря атмосферное давление.
Po - Атмосферное давление - измеренное на уровне метеостанции атмосферное давление.
Tmin - Минимальная температура - минимум температуры воздуха на высоте 2 м над землей.
Tmax - Максимальная температура - максимум температуры воздуха на высоте 2 м над землей.
R - Количество осадков - Количество выпавших осадков за период времени, мм. При наведении курсора мыши на число - период времени, за который выпало указанное количество осадков.
R24 - Количество осадков - Количество выпавших осадков за 24 часа, мм.
S - Снежный покров - Высота снежного покрова, см. При наведении курсора мыши на число - состояние снежного покрова и степень покрытия местности в баллах.